Preview of NWS' New Version of Forecast
This preview is not operational and should not be used for support decisions.
Latest weather observations around

Missoula, Missoula International Airport (KMSO)

Using English Units (Switch to International System of Units)
Date/ Time (MST) Wind (mph) Vis. (mi) Weather Sky Cond. Temp (°F) Rel. Humidity Wind Chill (°F) Heat Index (°F) Pressure Precip. (in)
Air Dwpt 6 hour Altimeter (inHg) Sea level (inHg) 1 hr 3 hr 6 hr
Max Min
Feb 25 07:53 Calm 10 Cloudy BKN046 OVC060 26 17     68%     29.83 29.93   0  
Feb 25 06:53 SSW 5 10 Cloudy OVC065 26 18     71% 20   29.83 29.94      
Feb 25 05:53 E 6 10 Cloudy OVC050 25 20     81% 18   29.84 29.95 0    
Feb 25 05:13 ENE 5 4 Light Snow and Fog/Mist FEW030 OVC037 24 20     84% 18   29.85   0    
Feb 25 04:53 Calm 2 Light Snow and Fog/Mist FEW027 OVC033 23 19     85%     29.87 29.98 0   0
Feb 25 04:30 Calm 9 Cloudy SCT031 BKN044 OVC055 23 19     85%     29.87        
Feb 25 03:53 S 7 10 Cloudy BKN050 OVC060 22 18     84% 13   29.87 29.98      
Feb 25 02:53 Calm 10 Cloudy SCT046 BKN070 OVC110 23 18     81%     29.87 29.99      
Feb 25 01:53 Calm 10 Cloudy FEW050 OVC065 21 17     84%     29.88 30.01      
Feb 25 00:53 E 3 10 Mostly Cloudy FEW050 BKN070 20 17     88% 15   29.89 30.01      
Feb 24 23:53 Calm 10 Cloudy OVC065 21 18     88%     29.89 30.02      
Feb 24 22:53 NE 7 10 Mostly Clear FEW070 21 18     88% 12   29.88 30.01      
Feb 24 21:53 Calm 10 Cloudy OVC075 23 19     85%     29.88 30.01      
Feb 24 20:53 Calm 10 Cloudy OVC075 24 20     84%     29.88 30.01      
Feb 24 19:53 Calm 10 Cloudy OVC070 24 20     84%     29.87 30      
Feb 24 18:53 S 3 10 Cloudy OVC055 24 20     84% 20   29.85 29.98      
Feb 24 17:53 SSE 3 10 Cloudy OVC060 24 20     84% 20   29.84 29.97      
Feb 24 16:53 Calm 10 Cloudy OVC050 24 21     88%     29.82 29.95 0   0
Feb 24 16:08 Calm 4 Fog/Mist BKN034 OVC047 24 21     88%     29.82   0    
Feb 24 15:57 Calm 2 Light Snow and Fog/Mist BKN030 OVC036 24 21     88%     29.82   0    
Feb 24 15:53 W 3 1.75 Light Snow and Fog/Mist BKN028 OVC036 24 21     88% 20   29.81 29.94 0    
Feb 24 15:37 WNW 5 1.5 Light Snow and Fog/Mist BKN026 OVC034 24 20     84% 18   29.81   0    
Feb 24 15:24 WNW 5 1.25 Light Snow and Fog/Mist BKN021 OVC030 24 20     84% 18   29.81   0    
Feb 24 15:14 WNW 5 1 Light Snow and Fog/Mist BKN019 OVC030 24 20     84% 18   29.81   0    
Feb 24 14:53 WNW 5 0.75 Light Snow and Fog/Mist VV017 23 20     88% 17   29.8 29.93 0    
Feb 24 14:29 W 5 0.75 Light Snow and Fog/Mist BKN020 OVC030 23 19     85% 17   29.8   0    
Feb 24 14:14 WNW 5 1 Light Snow and Fog/Mist BKN023 OVC030 23 19     85% 17   29.8   0    
Feb 24 14:01 WNW 5 1.25 Light Snow BKN025 OVC032 24 18     77% 18   29.8   0    
Feb 24 13:53 NW 3 1.5 Light Snow and Fog/Mist BKN025 OVC035 23 19     85% 19   29.8 29.93 0 0  
Feb 24 13:43 W 3 1.5 Light Snow and Fog/Mist BKN023 BKN029 OVC035 23 19     85% 19   29.8   0    
Feb 24 13:34 W 3 1.25 Light Snow and Fog/Mist BKN021 BKN025 OVC033 23 19     85% 19   29.8   0    
Feb 24 13:11 Calm 0.75 Light Snow and Fog/Mist BKN020 OVC026 22 18     84%     29.8   0    
Feb 24 13:03 Calm 1 Light Snow BKN023 OVC029 22 17     81%     29.81   0    
Feb 24 12:53 Calm 1.25 Light Snow BKN025 OVC034 22 17     81%     29.81 29.93 0    
Feb 24 12:26 W 3 2.5 Light Snow BKN027 OVC036 21 15     77% 16   29.81   0    
Feb 24 12:20 Calm 5 Light Snow OVC034 21 14     74%     29.81   0    
Feb 24 11:53 W 3 10 Cloudy BKN055 OVC070 21 13     70% 16   29.82 29.95      
Feb 24 10:53 WNW 5 10 Cloudy OVC060 20 13     74% 13   29.83 29.96      
Feb 24 09:53 NW 6 10 Cloudy FEW047 OVC055 19 12     74% 11   29.84 29.98      
Feb 24 08:53 WSW 5 10 Cloudy OVC043 15 11     83% 8   29.85 29.99      
Feb 24 07:53 W 3 10 Clear CLR 14 10     84% 8   29.87 30.01      
Feb 24 06:53 Calm 10 Mostly Cloudy BKN065 15 11     83%     29.9 30.03      
Feb 24 05:53 Calm 10 Cloudy OVC060 16 11     80%     29.92 30.05      
Feb 24 04:53 W 5 10 Cloudy BKN070 OVC085 16 11     80% 9   29.94 30.07      
Feb 24 03:53 NNW 3 10 Cloudy OVC055 17 11     76% 12   29.96 30.09      
Feb 24 02:53 WNW 5 10 Cloudy OVC050 16 10     77% 9   29.97 30.12      
Feb 24 01:53 N 5 10 Mostly Cloudy BKN048 BKN100 16 9     73% 9   29.99 30.14      
Feb 24 00:53 N 3 10 Cloudy OVC046 18 11     74% 13   30.01 30.15      
Feb 23 23:53 Calm 10 Cloudy OVC050 17 12     80%     30.02 30.17      
Feb 23 22:53 Calm 10 Cloudy FEW050 SCT065 OVC080 17 12     80%     30.05 30.21      
Feb 23 21:53 WNW 3 10 Cloudy BKN050 OVC060 19 11     70% 14   30.07 30.22      
Feb 23 20:53 N 5 10 Cloudy OVC065 20 12     71% 13   30.08 30.23      
Feb 23 19:53 NNW 8 10 Cloudy OVC065 21 10     62% 11   30.09 30.25      
Feb 23 18:53 NNW 8 10 Cloudy FEW050 OVC070 22 8     55% 13   30.1 30.26      
Feb 23 17:53 NW 10 10 Cloudy OVC050 23 8     52% 12   30.1 30.26      
Feb 23 16:53 WNW 10 10 Cloudy SCT055 OVC100 23 11     59% 12   30.1 30.26      
Feb 23 15:53 WNW 5 10 Cloudy OVC050 22 11     62% 16   30.1 30.27      
Feb 23 14:53 SW 5 10 Cloudy OVC050 19 11     70% 12   30.12 30.29      
Feb 23 13:53 SW 3 10 Cloudy OVC050 18 10     71% 13   30.14 30.32      
Feb 23 12:53 Calm 10 Cloudy OVC050 16 9     73%     30.18 30.35      
Feb 23 11:53 Calm 10 Cloudy OVC050 15 8     73%     30.21 30.38      
Feb 23 10:53 Calm 10 Cloudy OVC045 12 7     80%     30.23 30.4      
Feb 23 09:53 Calm 9 Cloudy OVC048 11 6     80%     30.23 30.4      
Feb 23 08:53 WSW 3 9 Cloudy OVC049 11 5     76% 5   30.23 30.4      
Feb 23 07:53 Calm 10 Cloudy OVC049 9 4     80%     30.23 30.4      
Feb 23 06:53 Calm 10 Cloudy OVC050 8 3     79%     30.22 30.38      
Feb 23 05:53 Calm 10 Cloudy OVC050 7 2     79%     30.21 30.38      
Feb 23 04:53 Calm 10 Cloudy OVC060 5 0     79%     30.2 30.37      
Feb 23 03:53 Calm 10 Clear CLR 5 0     79%     30.19 30.35      
Feb 23 02:53 N 3 10 Clear CLR 5 0     79% -2   30.18 30.35      
Feb 23 01:53 Calm 10 Clear CLR 6 0     75%     30.18 30.34      
Feb 23 00:53 ENE 3 10 Clear CLR 10 4     76% 4   30.16 30.32      
Feb 22 23:53 3 10 Clear CLR 12 4     69% 6   30.15 30.3      
Feb 22 22:53 WNW 3 10 Clear CLR 15 5     64% 10   30.14 30.3      
Feb 22 21:53 NNW 9 10 Clear CLR 16 6     64% 4   30.12 30.28      
Feb 22 20:53 NW 7 10 Cloudy OVC050 18 7     62% 9   30.1 30.26      
Feb 22 19:53   10 Cloudy OVC070 19 8     62%     30.09 30.26      
Feb 22 18:53   10 Cloudy OVC060 21 8     57%     30.07 30.23      
Feb 22 17:53   10 Cloudy OVC070 21 8     57%     30.05 30.21      
Feb 22 16:53 N 13 10 Cloudy BKN060 OVC075 21 9     59% 9   30.04 30.2      
Feb 22 15:53 N 9 10 Mostly Cloudy BKN085 23 9     54% 13   30.04 30.18      
Feb 22 14:53 N 13 10 Mostly Cloudy SCT065 BKN080 22 9     57% 10   30.04 30.19      
Feb 22 13:53 N 10 10 Cloudy OVC070 22 9     57% 11   30.05 30.2      
Feb 22 12:53 NNW 10 10 Partly Cloudy SCT070 21 9     59% 10   30.07 30.22      
Feb 22 11:53 NNW 7 10 Mostly Clear FEW060 20 8     59% 11   30.08 30.24      
Feb 22 10:53 WNW 7 10 Cloudy OVC060 13 8     81% 3   30.09 30.26      
Feb 22 09:53 WNW 3 10 Cloudy OVC050 11 6     80% 5   30.09 30.26      
Feb 22 08:53 NNW 3 10 Cloudy OVC055 11 5     76% 5   30.09 30.26      
Feb 22 07:53 Calm 10 Cloudy BKN055 BKN070 OVC090 8 5     87%     30.07 30.26      
Jun 11 20:53   10 Clear   64 35     34%     29.82 29.8      
Jun 11 14:53 W 5 10 Clear CLR 65 28     25%     29.89 29.9      
Jun 10 12:13 5 6 Light Rain FEW035 BKN043 OVC055 52 41     66%     29.75   0    
Jun 10 08:53 S 7 10 Clear CLR 51 41     68%     29.75 29.74      
Jun 09 13:53 7 10 Light Rain FEW026 SCT037 BKN047 57 48     72%     29.8 29.79 0    
Jun 08 21:53   10 Mostly Clear FEW120 64 51     63%     29.75 29.7      
Jun 07 23:53 E 10 10 Clear CLR 70 54     57%     29.84 29.77      
Jun 07 09:53 Calm 10 Clear CLR 66 52     61%     29.99 29.94      
Jun 06 01:53 N 5 10 Clear CLR 47 41     80% 45   30.17 30.15